• In Spain
  • List of Countries
  • For 7 days
  • Water Temperature
  • Satellite Maps
  • Weather Map
  • Weather Widgets
  • user-avatar
    Login

    Hourly Weather Blagoevgrad

    Today, 20 October, Saturday

    Time Temperature Precipitation Wind Pressure Humidity
    00:00 +13°C° 0 mm 1 mps 722 mmHg 79%
    01:00 +13°C° 0 mm 1 mps 722 mmHg 80%
    02:00 +13°C° 0 mm 1 mps 722 mmHg 81%
    03:00 +13°C° 0 mm 1 mps 722 mmHg 81%
    04:00 +12°C° 0 mm 1 mps 722 mmHg 81%
    05:00 +12°C° 0 mm 1 mps 722 mmHg 81%
    06:00 +13°C° 0 mm 1 mps 722 mmHg 77%
    07:00 +14°C° 0 mm 1 mps 723 mmHg 74%
    08:00 +14°C° 0 mm 1 mps 723 mmHg 70%
    09:00 +16°C° 0.1 mm 2 mps 723 mmHg 64%
    10:00 +17°C° 0.1 mm 2 mps 723 mmHg 58%
    11:00 +19°C° 0.1 mm 2 mps 723 mmHg 52%
    12:00 +19°C° 0.1 mm 2 mps 723 mmHg 50%
    13:00 +20°C° 0.1 mm 3 mps 723 mmHg 48%
    14:00 +20°C° 0.1 mm 3 mps 723 mmHg 46%
    15:00 +19°C° 0.1 mm 3 mps 723 mmHg 49%
    16:00 +19°C° 0.1 mm 2 mps 723 mmHg 53%
    17:00 +18°C° 0.1 mm 2 mps 723 mmHg 56%
    18:00 +16°C° 0 mm 2 mps 723 mmHg 63%
    19:00 +15°C° 0 mm 2 mps 723 mmHg 71%
    20:00 +13°C° 0 mm 2 mps 723 mmHg 78%
    21:00 +12°C° 0 mm 2 mps 723 mmHg 81%
    22:00 +12°C° 0 mm 1 mps 723 mmHg 83%
    23:00 +12°C° 0 mm 1 mps 723 mmHg 85%

    Tomorrow, 21 October, Sunday

    Time Temperature Precipitation Wind Pressure Humidity
    00:00 +11°C° 0 mm 1 mps 723 mmHg 86%
    01:00 +11°C° 0 mm 1 mps 723 mmHg 88%
    02:00 +11°C° 0 mm 1 mps 723 mmHg 89%
    03:00 +11°C° 0 mm 1 mps 723 mmHg 89%
    04:00 +10°C° 0 mm 1 mps 723 mmHg 89%
    05:00 +10°C° 0 mm 1 mps 722 mmHg 89%
    06:00 +11°C° 0 mm 1 mps 722 mmHg 85%
    07:00 +12°C° 0 mm 1 mps 723 mmHg 81%
    08:00 +12°C° 0 mm 1 mps 723 mmHg 78%
    09:00 +14°C° 0 mm 1 mps 723 mmHg 71%
    10:00 +15°C° 0 mm 1 mps 723 mmHg 64%
    11:00 +18°C° 0 mm 1 mps 723 mmHg 57%
    12:00 +18°C° 0 mm 1 mps 722 mmHg 57%
    13:00 +17°C° 0 mm 2 mps 722 mmHg 56%
    14:00 +17°C° 0 mm 2 mps 722 mmHg 55%
    15:00 +17°C° 0.1 mm 2 mps 722 mmHg 58%
    16:00 +16°C° 0.1 mm 2 mps 721 mmHg 62%
    17:00 +15°C° 0.1 mm 2 mps 721 mmHg 65%
    18:00 +14°C° 0.1 mm 2 mps 722 mmHg 71%
    19:00 +13°C° 0.1 mm 2 mps 722 mmHg 77%
    20:00 +11°C° 0.1 mm 1 mps 722 mmHg 83%
    21:00 +11°C° 0.1 mm 1 mps 722 mmHg 84%
    22:00 +11°C° 0.1 mm 1 mps 723 mmHg 86%
    23:00 +11°C° 0.1 mm 1 mps 723 mmHg 88%

    Day after tomorrow, 22 October, Monday

    Time Temperature Precipitation Wind Pressure Humidity
    00:00 +10°C° 0.1 mm 1 mps 723 mmHg 89%
    01:00 +10°C° 0.1 mm 1 mps 723 mmHg 89%
    02:00 +10°C° 0.1 mm 1 mps 723 mmHg 90%
    03:00 +10°C° 0 mm 1 mps 723 mmHg 91%
    04:00 +10°C° 0 mm 1 mps 723 mmHg 91%
    05:00 +10°C° 0 mm 1 mps 723 mmHg 91%
    06:00 +10°C° 0 mm 1 mps 723 mmHg 89%
    07:00 +11°C° 0 mm 1 mps 723 mmHg 86%
    08:00 +11°C° 0 mm 1 mps 723 mmHg 84%
    09:00 +13°C° 0 mm 1 mps 723 mmHg 76%
    10:00 +15°C° 0 mm 1 mps 723 mmHg 69%
    11:00 +16°C° 0 mm 1 mps 723 mmHg 61%
    12:00 +18°C° 0 mm 1 mps 723 mmHg 59%
    13:00 +17°C° 0 mm 2 mps 722 mmHg 56%
    14:00 +18°C° 0 mm 2 mps 722 mmHg 54%
    15:00 +17°C° 0 mm 2 mps 722 mmHg 57%
    16:00 +17°C° 0 mm 2 mps 721 mmHg 60%
    17:00 +16°C° 0 mm 1 mps 721 mmHg 63%
    18:00 +15°C° 0 mm 1 mps 721 mmHg 69%
    19:00 +14°C° 0 mm 1 mps 721 mmHg 75%
    20:00 +12°C° 0 mm 1 mps 721 mmHg 81%
    21:00 +12°C° 0 mm 1 mps 721 mmHg 83%
    22:00 +12°C° 0 mm 1 mps 721 mmHg 85%
    23:00 +11°C° 0 mm 1 mps 721 mmHg 87%

    23 October, Tuesday

    Time Temperature Precipitation Wind Pressure Humidity
    00:00 +11°C° 0 mm 1 mps 721 mmHg 88%
    01:00 +11°C° 0 mm 1 mps 721 mmHg 89%
    02:00 +11°C° 0 mm 1 mps 721 mmHg 89%
    03:00 +10°C° 0 mm 1 mps 721 mmHg 90%
    04:00 +10°C° 0 mm 1 mps 721 mmHg 90%
    05:00 +10°C° 0 mm 1 mps 720 mmHg 90%
    06:00 +10°C° 0 mm 1 mps 720 mmHg 87%
    07:00 +11°C° 0 mm 1 mps 721 mmHg 84%
    08:00 +11°C° 0 mm 1 mps 721 mmHg 81%
    09:00 +13°C° 0 mm 1 mps 721 mmHg 72%
    10:00 +15°C° 0 mm 2 mps 721 mmHg 64%
    11:00 +16°C° 0 mm 2 mps 721 mmHg 55%
    12:00 +17°C° 0 mm 2 mps 720 mmHg 52%
    13:00 +18°C° 0 mm 2 mps 720 mmHg 49%
    14:00 +18°C° 0 mm 2 mps 719 mmHg 46%
    15:00 +17°C° 0 mm 2 mps 719 mmHg 50%
    16:00 +17°C° 0 mm 2 mps 719 mmHg 53%
    17:00 +16°C° 0 mm 2 mps 719 mmHg 56%
    18:00 +15°C° 0 mm 2 mps 719 mmHg 62%
    19:00 +13°C° 0 mm 2 mps 719 mmHg 69%
    20:00 +12°C° 0 mm 1 mps 719 mmHg 75%
    21:00 +12°C° 0.1 mm 1 mps 719 mmHg 77%
    22:00 +10°C° 0.1 mm 2 mps 719 mmHg 78%
    23:00 +10°C° 0.1 mm 2 mps 719 mmHg 80%

    24 October, Wednesday

    Time Temperature Precipitation Wind Pressure Humidity
    00:00 +10°C° 0.1 mm 2 mps 719 mmHg 81%
    01:00 +10°C° 0.1 mm 2 mps 719 mmHg 81%
    02:00 +9°C° 0.1 mm 2 mps 718 mmHg 82%
    03:00 +9°C° 0.1 mm 2 mps 718 mmHg 83%
    04:00 +9°C° 0.1 mm 2 mps 718 mmHg 84%
    05:00 +9°C° 0.1 mm 2 mps 718 mmHg 84%
    06:00 +9°C° 0 mm 2 mps 718 mmHg 83%
    07:00 +9°C° 0 mm 2 mps 717 mmHg 82%
    08:00 +9°C° 0 mm 3 mps 717 mmHg 81%
    09:00 +11°C° 0 mm 3 mps 717 mmHg 73%
    10:00 +12°C° 0 mm 3 mps 717 mmHg 65%
    11:00 +14°C° 0 mm 3 mps 717 mmHg 58%
    12:00 +14°C° 0 mm 3 mps 716 mmHg 53%
    13:00 +16°C° 0 mm 3 mps 716 mmHg 49%
    14:00 +17°C° 0 mm 3 mps 715 mmHg 45%
    15:00 +16°C° 0 mm 3 mps 715 mmHg 46%
    16:00 +14°C° 0 mm 3 mps 715 mmHg 47%
    17:00 +13°C° 0 mm 3 mps 715 mmHg 47%
    18:00 +12°C° 0 mm 3 mps 715 mmHg 52%
    19:00 +10°C° 0 mm 2 mps 715 mmHg 57%
    20:00 +8°C° 0 mm 2 mps 715 mmHg 62%
    21:00 +8°C° 0 mm 2 mps 716 mmHg 65%
    22:00 +8°C° 0 mm 2 mps 716 mmHg 68%
    23:00 +8°C° 0 mm 2 mps 716 mmHg 71%

    25 October, Thursday

    Time Temperature Precipitation Wind Pressure Humidity
    00:00 +8°C° 0 mm 2 mps 716 mmHg 74%
    01:00 +8°C° 0 mm 2 mps 716 mmHg 77%
    02:00 +8°C° 0 mm 2 mps 716 mmHg 81%
    03:00 +8°C° 0 mm 2 mps 717 mmHg 82%
    04:00 +8°C° 0 mm 2 mps 717 mmHg 83%
    05:00 +7°C° 0 mm 2 mps 717 mmHg 85%
    06:00 +8°C° 0 mm 2 mps 718 mmHg 82%
    07:00 +8°C° 0 mm 2 mps 718 mmHg 80%
    08:00 +9°C° 0 mm 2 mps 719 mmHg 78%
    09:00 +11°C° 0 mm 3 mps 719 mmHg 69%
    10:00 +13°C° 0 mm 3 mps 720 mmHg 61%
    11:00 +15°C° 0 mm 4 mps 720 mmHg 52%
    12:00 +15°C° 0 mm 4 mps 720 mmHg 49%
    13:00 +17°C° 0 mm 4 mps 720 mmHg 46%
    14:00 +18°C° 0 mm 4 mps 720 mmHg 43%
    15:00 +17°C° 0 mm 3 mps 720 mmHg 47%
    16:00 +16°C° 0 mm 3 mps 720 mmHg 52%
    17:00 +14°C° 0 mm 3 mps 720 mmHg 56%
    18:00 +13°C° 0 mm 2 mps 721 mmHg 64%
    19:00 +12°C° 0 mm 2 mps 721 mmHg 72%
    20:00 +9°C° 0 mm 2 mps 722 mmHg 79%
    21:00 +9°C° 0 mm 2 mps 722 mmHg 81%
    22:00 +10°C° 0 mm 1 mps 722 mmHg 83%
    23:00 +10°C° 0 mm 1 mps 723 mmHg 85%
    Show more